RH
82 81 87 82 84 85 84 87 88 78 86 81 75 82 85 88 87 89 89 94 96 96 95 95 97 96 96 99 98 97 96 96 96
80 79 84 83 80 83 88 90 89 88 87 87 75 80 88 89 94 96 93 96 96 94 96 90 90 93 92 94 91 92 94 88 87
79 82 85 86 84 86 89 88 89 71 74 67 63 63 74 87 93 92 90 85 96 93 87 90 91 89 83 86 86 88 86 82 76
83 84 83 84 86 86 93 85 72 67 67 64 63 63 68 86 89 91 92 91 92 92 92 84 88 85 83 80 83 81 80 80 74
86 86 85 84 88 92 92 76 79 68 65 64 63 63 67 85 93 95 90 85 84 88 86 85 84 82 83 83 82 82 78 84 76
84 85 85 86 89 95 89 73 77 67 66 66 65 64 61 71 77 85 86 83 85 82 82 85 84 84 85 84 85 84 81 84 85
86 84 87 88 89 93 82 75 72 71 67 67 68 64 66 71 66 72 70 76 84 83 82 82 81 80 82 81 80 81 84 82 82
90 88 91 89 88 96 78 73 71 71 72 72 68 63 69 72 73 70 72 86 81 77 76 79 80 83 81 80 82 82 82 83 83
91 95 96 89 89 85 69 70 73 72 74 72 69 72 77 78 75 75 74 82 85 80 78 80 80 83 81 84 82 84 84 81 81
84 92 94 84 84 72 61 65 73 76 75 72 67 73 79 78 77 75 71 84 83 85 88 87 80 82 81 83 84 84 84 83 84
71 72 77 74 77 64 60 68 76 76 71 66 71 75 79 80 80 77 74 73 76 80 90 90 82 78 80 82 83 85 87 87 84
49 48 47 56 61 60 61 76 77 71 65 60 68 75 80 82 82 80 78 79 80 82 78 80 79 78 79 83 86 80 76 75 73
39 35 43 51 52 54 61 64 73 66 61 58 58 70 81 84 83 83 83 82 82 86 87 85 83 82 83 79 76 71 69 69 69
38 40 43 47 49 51 60 62 62 65 63 57 52 56 68 72 73 77 66 67 80 88 85 76 85 85 78 73 68 64 63 65 68
44 43 45 48 54 52 60 60 64 63 62 58 55 52 55 55 52 47 43 52 59 67 54 50 54 66 73 65 61 57 58 62 67
46 43 44 47 56 55 62 62 63 68 65 62 66 61 58 54 56 54 47 45 47 47 46 45 47 54 46 41 39 52 55 61 64
43 42 43 44 54 58 64 63 68 69 67 67 72 90 80 67 65 61 56 51 53 51 48 48 48 47 46 41 32 28 54 60 64
42 42 42 42 50 59 59 67 66 72 70 66 68 97 92 91 73 62 60 58 55 52 51 52 50 48 48 42 35 30 39 60 62
45 44 44 43 42 56 60 62 68 68 78 74 67 65 76 94 95 84 64 63 60 56 54 55 53 51 48 41 37 34 41 60 62
46 45 44 45 42 43 58 64 68 69 72 72 75 60 73 73 82 96 86 67 62 59 58 58 56 50 45 39 37 35 40 58 61
Wind_Speed
17 18 18 19 18 19 20 19 20 23 21 21 20 19 18 18 17 17 16 21 22 22 22 21 20 22 23 23 22 22 22 23 23
19 19 19 19 20 22 19 19 20 20 21 22 24 21 19 19 21 22 23 23 23 22 22 20 19 19 18 17 17 18 20 18 18
20 19 19 19 21 19 18 21 21 23 23 21 19 15 17 19 20 20 21 18 20 19 17 17 17 17 16 15 16 17 17 17 17
19 19 19 19 20 19 19 21 21 22 21 20 17 13 15 18 18 19 19 18 17 17 17 16 15 15 16 16 16 17 16 15 16
18 18 18 19 19 18 19 20 19 20 18 17 14 12 13 18 19 19 20 19 16 16 17 16 16 17 17 18 17 17 17 17 17
18 18 18 19 19 18 18 20 20 18 15 13 12 10 11 13 15 17 18 18 18 17 17 17 17 17 17 17 17 17 17 16 16
20 18 18 18 19 18 19 20 18 16 15 15 12 10 12 14 12 9 7 13 16 16 17 16 17 17 17 17 16 16 16 16 16
20 20 19 20 22 20 20 20 19 16 16 15 13 12 15 17 16 12 12 15 15 15 16 16 16 16 16 16 16 15 16 16 16
21 19 20 20 22 21 19 20 21 19 16 14 13 16 17 18 16 14 14 15 15 15 14 15 15 15 15 15 14 14 14 14 14
20 20 19 20 21 20 19 20 21 20 17 14 12 16 17 18 17 15 13 16 14 15 14 13 13 13 13 13 13 13 13 13 13
20 20 20 20 21 20 18 22 22 20 16 14 14 16 17 18 18 17 16 15 13 13 14 13 12 12 13 12 13 13 12 12 12
20 20 20 20 21 20 20 22 21 19 17 15 15 16 17 17 17 17 18 17 16 12 12 12 11 11 11 11 11 12 12 12 12
20 21 21 21 20 19 22 24 23 20 18 17 16 16 16 16 16 15 15 15 15 13 13 12 12 11 10 11 11 11 11 11 12
20 21 22 22 21 21 22 25 25 23 20 18 17 16 16 16 15 15 14 14 16 16 14 13 12 11 10 9 10 10 10 10 11
21 21 21 22 23 23 24 26 26 25 23 20 17 15 15 15 14 14 15 16 16 14 11 10 9 8 9 9 8 9 9 10 10
24 23 23 23 24 25 26 26 27 26 25 22 13 11 13 14 14 13 13 13 12 11 11 10 8 7 5 4 5 8 9 9 11
25 25 27 27 27 28 29 31 30 25 29 13 13 2 4 13 16 16 16 15 14 12 11 9 8 7 5 2 2 4 8 9 10
27 27 27 28 29 31 33 33 34 25 32 22 8 3 4 5 14 19 18 18 17 14 12 10 8 7 6 3 1 4 5 7 9
27 27 27 28 30 32 34 34 36 32 30 27 17 5 8 3 2 10 18 17 16 15 14 12 11 9 7 5 3 3 5 8 10
26 26 27 29 30 31 33 35 34 35 33 33 25 11 10 8 3 3 8 18 18 15 14 13 12 11 9 7 5 4 5 7 10
Wind_Direction
140 140 138 144 140 139 135 129 126 122 118 113 109 108 106 98 100 100 102 98 91 86 82 77 73 70 67 67 70 73 73 70 69
142 142 138 137 136 138 136 133 132 126 121 117 105 99 101 95 97 99 95 90 87 83 80 78 71 68 70 63 64 62 63 63 59
146 142 138 136 137 136 133 135 130 126 126 119 113 100 97 98 101 98 94 93 85 83 83 79 75 72 72 69 67 64 64 61 63
146 142 140 137 138 136 131 134 134 135 134 127 121 118 103 102 101 100 96 90 84 84 82 82 79 80 77 74 73 74 72 73 70
146 143 141 139 140 137 134 140 141 141 136 131 128 125 120 103 100 102 93 88 83 87 86 88 85 83 81 79 79 79 76 73 70
150 147 145 141 143 139 141 144 143 144 137 141 138 140 144 131 105 99 98 92 90 90 93 93 90 88 85 82 79 76 76 72 72
152 150 147 145 146 147 149 149 145 153 147 140 135 127 139 157 139 125 115 95 103 100 100 98 95 92 88 85 81 79 75 71 67
156 151 153 155 153 160 154 151 158 160 156 143 132 126 129 126 118 122 121 115 108 107 105 102 99 96 92 88 83 79 73 68 64
168 160 163 163 163 159 155 157 160 160 154 147 136 138 135 131 127 128 132 125 115 113 111 107 104 99 92 87 81 75 70 65 59
178 178 173 168 165 159 158 162 162 159 154 150 150 148 147 143 137 137 137 128 125 123 118 113 105 99 92 86 81 76 70 64 57
182 181 177 172 168 161 161 163 162 160 160 154 156 156 156 154 151 146 144 138 137 130 127 120 109 98 93 86 81 76 69 62 54
185 183 180 174 169 168 166 168 167 164 161 156 157 158 161 161 161 156 156 148 140 130 130 122 114 107 98 90 80 71 63 53 45
188 184 179 177 178 176 172 173 172 170 166 158 158 161 163 165 168 169 167 166 152 137 135 125 120 113 107 97 83 70 59 47 36
191 187 184 188 191 188 182 178 180 171 166 161 160 165 169 171 171 172 171 167 165 165 161 145 132 117 107 93 77 63 51 43 35
202 202 201 198 194 191 189 183 181 177 170 164 161 166 171 174 178 181 180 179 179 178 175 163 150 137 113 94 74 55 44 36 30
206 205 202 201 200 194 188 182 180 175 173 157 153 171 184 189 192 193 190 190 189 187 182 177 170 162 142 106 73 55 42 32 23
209 208 207 205 201 199 193 188 176 178 179 163 140 147 222 219 211 204 204 200 201 203 201 195 189 182 173 143 45 39 38 25 15
215 214 214 210 206 203 199 196 191 181 184 182 163 145 205 156 212 214 212 208 206 204 210 209 204 199 200 211 314 4 23 18 5
223 222 220 217 213 211 208 205 202 194 188 191 204 194 146 163 158 214 216 216 217 212 210 214 215 214 214 220 246 316 360 360 351
226 225 222 221 220 219 216 211 209 208 202 200 203 196 186 168 140 176 188 211 215 216 219 221 220 212 214 223 235 282 324 339 335